Overview Statistics Trail Chart Weather Telemetry Raw packets
 

This is the latest recevied weather packets stored in our database for station/object KW6V-15. If no packets are shown the sender has not sent any weather packets the latest 10 day(s).

<< 13 14 15 16 17 18 19 >>
Time Temp. Humidity Pressure Rain* Wind** Luminosity Snow
1787956241 16.11° C 84% 1017.3 hPa 0 mm - - -
1787954450 16.11° C 82% 1017.4 hPa 0 mm - - -
1787952640 16.11° C 83% 1017.4 hPa 0 mm - - -
1787950857 16.67° C 82% 1017.7 hPa 0 mm - - -
1787949049 17.22° C 79% 1017.5 hPa 0 mm - - -
1787947256 18.33° C 77% 1017.4 hPa 0 mm - - -
1787945450 18.89° C 76% 1017.4 hPa 0 mm - - -
1787943670 18.33° C 77% 1017.1 hPa 0 mm - - -
1787941873 18.33° C 77% 1016.9 hPa 0 mm - - -
1787940035 18.33° C 78% 1016.4 hPa 0 mm - - -
1787938242 18.89° C 76% 1016.4 hPa 0 mm - - -
1787936432 18.33° C 80% 1015.9 hPa 0 mm - - -
1787934654 16.11° C 87% 1015.7 hPa 0 mm - - -
1787932913 13.89° C 91% 1015.9 hPa 0 mm - - -
1787931051 13.33° C 92% 1015.6 hPa 0 mm - - -
1787929229 12.78° C 92% 1015.3 hPa 0 mm - - -
1787927463 12.78° C 92% 1015.3 hPa 0 mm - - -
1787925667 12.78° C 91% 1015 hPa 0 mm - - -
1787923867 12.78° C 92% 1014.9 hPa 0 mm - - -
1787922057 12.78° C 91% 1015 hPa 0 mm - - -
1787920246 12.78° C 91% 1014.8 hPa 0 mm - - -
1787914861 13.33° C 91% 1014.9 hPa 0 mm - - -
1787913106 13.33° C 91% 1015 hPa 0 mm - - -
1787911258 13.33° C 90% 1015 hPa 0 mm - - -
1787909468 13.89° C 90% 1015.2 hPa 0 mm - - -

* Rain latest hour (hover to see other rain measurements)
** Current wind speed in m/s (hover to see current wind gust speed)